Pine Bluff, AR

1:30 PM CDT on August 29, 2016 (GMT -0500)
Grider

Weather History for KPBF - October, 2012

Change the Weather History Date:

Saturday, October 13, 2012

  Actual Average Record
Temperature  
Mean Temperature 71 °F 64 °F  
Max Temperature 83 °F 76 °F 97 °F (1928)
Min Temperature 59 °F 52 °F 33 °F (1917)
Degree Days  
Heating Degree Days 0 3  
Month to date heating degree days 59 28  
Since 1 July heating degree days 61 39  
Cooling Degree Days 6 2  
Month to date cooling degree days 23 45  
Year to date cooling degree days 2345 2089  
Growing Degree Days 20 (Base 50)    
Moisture  
Dew Point 63 °F    
Average Humidity 79    
Maximum Humidity 100    
Minimum Humidity 58    
Precipitation  
Precipitation 0.00 in 0.16 in 2.40 in (2001)
Month to date precipitation 0.72 1.93  
Year to date precipitation 36.80 37.81  
Snow  
Snow 0.00 in 0.00 in - ()
Month to date snowfall 0.0 0.0  
Since 1 July snowfall 0.0 0.0  
Since 1 September snowfall 0.0 0.0  
Snow Depth 0.00 in    
Sea Level Pressure  
Sea Level Pressure 30.11 in    
Wind  
Wind Speed 9 mph (South)    
Max Wind Speed 22 mph    
Max Gust Speed 29 mph    
Visibility 6 miles    
Events Fog    
T = Trace of Precipitation, MM = Missing Value Source: NWS Daily Summary

Daily Weather History Graph

Daily Weather History Graph

Search for Another Location

Airport or City:

Trip Planner

Search our weather history database for the weather conditions in past years. The results will help you decide how hot, cold, wet, or windy it might be!

Date:

Astronomy

Oct. 13, 2012 Rise Set
Actual Time 7:11 AM CDT 6:35 PM CDT
Civil Twilight 6:46 AM CDT 7:00 PM CDT
Nautical Twilight 6:17 AM CDT 7:29 PM CDT
Astronomical Twilight 5:48 AM CDT 7:58 PM CDT
Moon 5:06 AM CDT (10/13) 5:16 PM CDT (10/13)
Length of Visible Light 12h 13m
Length of Day
11h 23m
Waning Crescent, 5% of the Moon is Illuminated
Oct 13
Waning Crescent
Oct 15
New
Oct 21
First Quarter
Oct 29
Full
Nov 6
Last Quarter

Hourly Weather History & Observations

Time (CDT) Temp. Heat Index Dew Point Humidity Pressure Visibility Wind Dir Wind Speed Gust Speed Precip Events Conditions
12:34 AM 62.6 °F - 62.6 °F 100% 30.19 in 6.0 mi NNE 4.6 mph - N/A   Partly Cloudy
12:53 AM 62.1 °F - 61.0 °F 96% 30.18 in 6.0 mi NNE 5.8 mph - N/A   Scattered Clouds
1:01 AM 62.6 °F - 62.6 °F 100% 30.18 in 6.0 mi NNE 3.5 mph - N/A   Mostly Cloudy
1:53 AM 61.0 °F - 60.1 °F 97% 30.17 in 6.0 mi Calm Calm - N/A   Mostly Cloudy
2:09 AM 60.8 °F - 60.8 °F 100% 30.18 in 5.0 mi Calm Calm - N/A   Scattered Clouds
2:53 AM 60.1 °F - 59.0 °F 96% 30.16 in 4.0 mi Calm Calm - N/A   Clear
3:16 AM 60.8 °F - 59.0 °F 94% 30.16 in 2.5 mi Calm Calm - N/A   Mostly Cloudy
3:26 AM 60.8 °F - 59.0 °F 94% 30.15 in 1.0 mi Calm Calm - N/A   Mostly Cloudy
3:33 AM 59.0 °F - 59.0 °F 100% 30.15 in 0.5 mi Calm Calm - N/A Fog Fog
3:53 AM 59.0 °F - 59.0 °F 100% 30.15 in 1.0 mi Calm Calm - N/A   Overcast
4:06 AM 60.8 °F - 60.8 °F 100% 30.15 in 1.8 mi Calm Calm - N/A   Overcast
4:15 AM 60.8 °F - 60.8 °F 100% 30.15 in 2.5 mi Calm Calm - N/A   Overcast
4:26 AM 60.8 °F - 60.8 °F 100% 30.15 in 3.0 mi Calm Calm - N/A   Overcast
4:53 AM 61.0 °F - 60.1 °F 97% 30.15 in 1.2 mi Calm Calm - N/A   Overcast
5:07 AM 60.8 °F - 60.8 °F 100% 30.15 in 0.2 mi Calm Calm - N/A Fog Fog
5:53 AM 61.0 °F - 61.0 °F 100% 30.15 in 0.2 mi ESE 3.5 mph - N/A Fog Fog
6:53 AM 61.0 °F - 61.0 °F 100% 30.17 in 0.2 mi Calm Calm - N/A Fog Fog
7:53 AM 62.1 °F - 62.1 °F 100% 30.17 in 0.2 mi Calm Calm - N/A Fog Fog
8:28 AM 62.6 °F - 62.6 °F 100% 30.18 in 1.0 mi South 3.5 mph - N/A   Overcast
8:36 AM 62.6 °F - 62.6 °F 100% 30.18 in 3.0 mi Calm Calm - N/A   Mostly Cloudy
8:43 AM 64.4 °F - 64.4 °F 100% 30.18 in 4.0 mi South 4.6 mph - N/A   Overcast
8:53 AM 64.0 °F - 64.0 °F 100% 30.18 in 4.0 mi South 4.6 mph - N/A   Mostly Cloudy
9:53 AM 71.1 °F - 66.9 °F 87% 30.17 in 9.0 mi SSW 12.7 mph 18.4 mph N/A   Clear
10:53 AM 75.0 °F - 68.0 °F 79% 30.14 in 10.0 mi South 13.8 mph - N/A   Clear
11:53 AM 78.1 °F - 68.0 °F 71% 30.12 in 10.0 mi SSW 16.1 mph 23.0 mph N/A   Scattered Clouds
12:53 PM 80.1 °F 82.3 °F 66.9 °F 64% 30.09 in 10.0 mi SSW 13.8 mph - N/A   Mostly Cloudy
1:53 PM 81.0 °F 83.3 °F 66.9 °F 62% 30.05 in 10.0 mi SSW 12.7 mph 20.7 mph N/A   Scattered Clouds
2:53 PM 82.0 °F 84.1 °F 66.0 °F 58% 30.02 in 10.0 mi South 15.0 mph 21.9 mph N/A   Scattered Clouds
3:53 PM 81.0 °F 83.0 °F 66.0 °F 60% 30.01 in 10.0 mi South 13.8 mph - N/A   Scattered Clouds
4:53 PM 80.1 °F 81.9 °F 64.9 °F 60% 30.00 in 10.0 mi South 11.5 mph 20.7 mph N/A   Clear
5:53 PM 78.1 °F - 66.0 °F 66% 29.99 in 10.0 mi South 9.2 mph - N/A   Clear
7:53 PM 72.0 °F - 66.0 °F 81% 29.97 in 10.0 mi SSE 8.1 mph - N/A   Clear
8:53 PM 72.0 °F - 66.0 °F 81% 29.99 in 10.0 mi SSE 8.1 mph - N/A   Clear
9:53 PM 73.0 °F - 66.0 °F 79% 29.96 in 10.0 mi SSE 13.8 mph - N/A   Clear
10:53 PM 73.4 °F - 66.2 °F 78% 29.96 in 10.0 mi SSE 12.7 mph - N/A   Partly Cloudy
11:53 PM 73.4 °F - 66.2 °F 78% 29.93 in 10.0 mi South 13.8 mph 23.0 mph N/A   Mostly Cloudy